Theta_e
297 299 299 300 301 303 305 307 309 313 318 322 323 322 323 323 324 323 322 322 320 320 320 319 319 319 318 318 318 316 315 314 310 314 311 307 300 296 295 296 295 293 295
295 296 297 298 298 298 299 301 304 306 311 315 318 322 323 323 324 323 322 322 321 320 320 320 319 319 318 318 317 316 316 316 314 311 311 299 299 297 295 293 293 292 293
292 293 293 294 294 295 296 297 298 299 302 306 311 314 318 321 322 323 323 322 322 321 321 320 320 319 317 317 317 316 316 315 316 313 312 295 293 292 291 290 290 290 291
290 290 291 291 291 292 293 294 294 295 296 298 301 304 310 315 319 321 322 322 322 322 321 321 321 319 318 318 316 316 315 314 313 311 302 291 290 288 288 287 286 286 287
288 287 288 289 289 289 289 289 290 292 293 295 297 299 302 306 311 315 318 319 320 320 320 320 320 316 306 313 316 315 314 312 309 304 290 287 288 287 289 288 288 286 285
285 285 287 286 286 286 284 284 286 288 290 291 292 294 296 299 299 300 303 313 317 317 317 318 318 301 303 301 303 306 312 312 305 302 298 294 290 288 288 288 286 284 284
282 283 282 283 282 280 280 281 282 284 287 288 289 291 292 295 296 297 296 303 309 314 316 316 314 311 301 312 303 301 302 303 308 304 301 297 293 290 290 287 286 286 286
280 279 280 278 277 278 278 279 280 282 285 286 287 288 289 291 294 295 294 297 302 307 312 312 312 307 304 305 307 303 303 301 302 302 305 300 299 294 293 291 289 286 283
275 275 275 275 274 275 275 276 278 283 284 284 286 286 287 288 291 292 293 293 295 298 303 308 310 309 302 297 303 297 294 292 293 295 296 296 295 294 291 288 285 286 280
272 273 273 273 272 272 274 276 279 280 280 281 284 286 287 287 290 291 292 291 290 293 295 296 292 300 298 296 298 294 292 291 288 287 287 291 292 291 291 292 288 287 280
271 271 270 271 270 272 272 273 274 276 279 281 283 285 286 288 289 291 292 290 290 290 292 295 295 294 295 295 296 293 294 290 290 288 287 286 286 287 287 287 288 290 283
269 268 268 268 269 271 270 271 273 273 273 275 278 280 284 287 289 291 292 293 293 290 289 292 295 293 294 295 294 296 295 289 288 287 286 285 285 285 286 285 284 283 283
265 265 266 267 268 269 268 269 269 270 271 272 275 277 280 285 287 289 291 292 292 290 291 292 293 293 293 294 294 294 289 288 287 286 286 286 287 287 284 282 282 282 281
264 265 266 266 266 268 269 269 268 269 269 271 272 274 277 280 282 285 287 288 288 289 289 290 291 292 292 293 289 291 289 288 288 288 288 287 286 283 282 282 280 280 280
264 265 265 266 266 267 268 269 270 272 273 272 274 275 276 278 281 286 287 287 288 289 288 288 287 287 288 288 288 289 288 287 287 288 287 285 283 283 282 282 281 280 279
262 263 264 266 266 267 268 268 273 275 277 278 280 280 280 283 285 286 288 289 290 290 288 287 287 287 287 287 287 287 287 286 287 287 286 284 283 282 281 281 281 280 278
261 263 264 265 265 265 266 266 266 269 273 274 276 277 278 277 280 281 283 289 290 290 286 287 287 287 287 287 287 287 287 286 287 286 285 284 283 283 281 280 279 279 278
261 263 263 263 264 265 265 265 265 265 264 266 270 273 273 275 276 278 280 286 286 287 286 286 286 287 287 287 287 287 287 286 285 285 285 284 283 282 281 279 279 278 277
261 261 262 262 263 263 264 264 264 264 264 264 265 268 269 272 272 273 273 269 270 279 284 286 287 287 287 287 287 287 287 285 285 284 284 284 283 282 281 280 279 278 276
258 261 260 260 261 261 262 262 262 262 262 262 262 263 268 265 264 264 265 266 266 267 269 269 284 286 286 286 286 286 285 285 284 284 284 283 282 282 280 278 277 275 274
257 257 258 258 258 259 259 259 260 260 260 260 261 263 270 263 263 263 263 264 264 265 265 267 270 274 285 285 285 285 284 284 283 283 282 281 280 278 278 277 275 274 271
255 255 255 255 256 256 257 258 258 258 258 259 260 261 266 262 261 261 262 262 264 264 265 265 266 268 269 271 278 282 281 280 280 279 278 277 277 275 274 273 271 270 269
253 253 253 253 254 254 255 255 255 256 256 257 257 258 259 259 260 260 260 261 262 263 264 264 264 264 265 267 268 271 273 274 275 275 274 273 273 272 272 271 269 268 268
249 249 251 251 252 252 252 252 253 254 254 254 254 255 255 257 257 258 258 259 260 261 262 263 263 263 263 264 265 266 268 270 272 273 273 272 270 270 270 269 268 268 267
246 247 248 249 250 250 251 251 251 252 252 252 252 253 253 254 255 255 256 256 257 258 259 261 262 262 262 263 265 266 266 266 267 269 269 269 268 268 268 267 266 266 265
247 245 247 248 249 249 249 249 249 250 250 250 251 251 251 252 253 253 254 253 254 255 256 258 259 260 262 262 264 266 267 270 266 267 267 267 266 266 266 265 265 265 264
Wind_Speed
13 12 12 10 10 10 9 9 9 11 11 11 10 12 14 15 15 16 16 16 17 16 15 15 17 16 12 11 10 10 11 12 14 10 5 5 4 4 5 3 5 4 5
11 11 12 12 13 12 12 12 12 11 11 11 12 11 13 14 14 16 16 14 17 17 17 18 18 13 16 15 11 14 13 12 12 16 7 4 4 4 5 7 4 4 4
12 12 11 12 13 14 14 14 14 13 13 12 12 12 13 13 14 15 16 16 17 18 18 18 18 17 16 13 14 13 12 11 12 12 9 2 2 2 4 1 4 3 4
13 12 12 12 12 12 12 13 14 14 13 13 12 13 13 13 14 14 15 16 16 17 18 18 18 18 18 17 15 16 13 12 11 11 5 3 2 2 2 3 3 4 2
13 14 14 14 13 12 13 14 14 13 12 13 14 13 13 12 10 14 14 15 16 17 17 17 18 19 20 20 12 14 14 12 9 8 4 2 3 3 9 4 4 2 2
12 13 12 14 13 14 16 17 16 15 13 13 13 13 14 9 15 17 16 16 18 16 16 16 16 14 17 21 21 20 16 15 12 9 7 6 8 5 5 7 5 4 5
13 11 13 12 14 17 16 16 16 17 16 15 14 13 14 14 17 16 17 16 17 17 16 14 13 10 12 16 19 21 20 20 23 15 11 12 8 11 10 7 6 5 4
11 14 13 15 15 15 16 16 16 15 15 15 17 16 16 14 21 20 18 16 16 18 16 15 15 11 13 14 13 13 14 13 14 10 14 11 12 12 14 11 11 7 5
14 15 16 16 17 17 17 17 16 16 16 16 16 19 19 18 22 21 20 16 15 16 15 15 14 14 12 18 16 13 11 8 5 7 6 7 12 18 15 10 8 10 3
17 17 16 16 16 17 17 17 17 17 18 16 19 17 21 21 24 26 21 12 15 13 14 14 15 16 13 18 15 12 12 11 9 5 4 7 11 14 22 14 12 12 5
17 18 18 17 17 17 17 15 16 16 18 18 20 18 18 16 18 21 19 11 11 13 14 13 11 15 18 17 21 12 14 10 13 10 8 6 6 9 8 5 10 10 7
16 16 16 16 14 14 17 15 16 16 16 17 18 17 13 14 19 20 18 18 17 13 14 14 13 14 19 21 19 21 14 13 8 8 9 9 8 9 8 6 6 4 2
16 16 16 16 14 14 16 16 13 13 13 14 14 15 16 14 14 24 19 19 20 15 11 15 23 17 22 20 23 19 16 9 9 10 11 10 10 9 9 8 6 7 5
15 15 15 15 17 15 13 12 12 12 13 13 14 15 16 16 15 14 13 12 14 12 14 12 15 18 18 16 9 13 10 10 11 11 10 8 8 9 9 8 7 8 6
13 14 14 13 15 15 13 13 13 12 15 16 15 16 17 18 16 24 23 17 14 15 14 11 10 9 9 9 7 10 9 8 9 8 8 9 9 10 9 9 8 8 6
11 11 11 12 13 13 13 13 20 26 30 31 30 24 15 29 38 37 34 33 31 28 14 13 12 10 10 9 9 9 10 11 10 9 10 10 11 12 11 10 9 11 10
9 10 10 12 12 14 14 15 17 16 26 29 31 34 35 36 39 38 34 33 31 25 13 14 13 10 10 10 9 11 11 10 11 11 10 11 12 12 15 12 12 12 10
9 11 9 10 11 12 13 13 13 15 16 15 22 29 33 38 38 37 38 28 13 10 10 13 12 11 10 10 11 11 10 9 11 11 11 12 13 14 14 13 13 14 12
9 8 10 10 10 12 11 12 12 13 14 14 15 20 24 36 35 33 34 14 16 15 11 11 11 10 10 10 10 10 12 11 12 12 12 13 13 14 14 13 13 17 14
7 10 10 9 10 10 11 11 12 13 13 13 13 15 17 19 16 18 16 15 15 14 14 15 14 9 9 8 8 9 9 10 10 11 11 11 11 11 12 12 12 13 12
7 8 12 8 9 10 10 12 12 12 12 12 13 15 33 15 14 14 14 15 15 15 16 15 14 16 8 7 7 7 8 8 9 9 8 8 9 9 9 9 10 10 11
6 7 8 9 9 10 11 10 10 11 12 12 13 14 29 12 13 14 15 15 15 15 14 15 14 13 13 13 11 4 6 6 5 6 7 8 9 10 11 11 12 11 11
7 8 8 7 8 11 9 9 10 11 12 12 13 13 13 13 13 14 15 15 15 15 15 15 15 15 15 14 13 11 8 5 1 5 8 8 9 9 10 11 12 11 10
5 5 7 7 7 8 8 9 9 11 12 11 12 12 13 13 14 15 14 14 14 14 14 14 14 19 16 15 13 12 11 8 5 3 6 8 8 10 9 10 9 12 11
3 3 4 5 7 8 9 9 9 10 10 10 11 11 12 12 13 13 13 13 14 14 16 15 13 18 19 20 19 18 16 16 12 9 5 7 8 10 10 9 10 10 11
4 4 4 5 7 7 8 9 9 9 10 10 10 10 11 12 11 12 12 14 14 14 17 13 16 22 21 16 18 20 19 12 10 10 6 7 7 6 6 8 12 9 12
Wind_Direction
11 8 6 4 6 4 357 345 334 321 310 288 262 249 241 239 235 236 235 231 228 230 228 230 231 225 227 222 219 223 228 228 245 250 206 185 169 140 180 145 146 169 186
4 5 7 2 1 3 358 348 342 334 323 311 303 280 261 253 248 244 241 237 234 235 232 230 231 226 226 224 220 223 226 226 237 250 217 174 173 172 168 156 161 182 193
0 359 1 4 0 355 348 344 342 339 330 321 314 303 293 279 268 259 252 248 242 237 237 236 233 227 227 223 223 226 224 225 227 239 240 130 127 158 138 159 165 190 167
353 354 356 357 353 343 339 338 335 332 327 323 318 306 299 292 282 272 264 256 249 243 238 237 235 231 230 225 222 223 223 223 222 228 224 159 151 135 77 148 181 221 134
347 350 350 345 342 340 339 336 329 323 317 314 316 310 306 300 289 285 277 268 260 255 249 241 235 234 227 227 221 220 216 220 221 209 169 148 181 182 195 179 155 154 175
343 341 342 337 340 344 336 332 327 322 319 316 309 306 305 300 297 295 291 284 275 263 258 250 241 228 229 225 224 224 211 215 215 209 198 203 194 181 154 173 155 136 206
333 337 338 334 343 333 328 327 325 321 317 314 309 306 301 295 290 295 299 291 280 271 266 255 248 231 220 228 229 229 228 215 220 201 207 204 184 182 166 165 185 162 184
337 345 341 341 329 326 324 320 317 316 315 315 311 308 302 297 299 296 291 291 281 274 268 259 249 232 220 223 231 228 228 225 219 206 212 202 207 179 184 177 178 130 73
349 339 340 333 328 326 322 318 312 312 310 305 303 304 304 300 302 299 298 293 281 276 271 263 254 246 225 214 228 227 226 219 200 185 169 167 171 170 160 132 154 158 162
344 339 333 330 326 320 314 315 315 313 305 305 300 297 298 296 299 299 297 290 286 281 273 266 250 248 231 211 222 217 222 211 175 156 156 170 171 176 174 178 165 178 139
336 334 331 327 322 316 314 313 307 307 305 305 300 298 292 289 294 287 284 283 285 287 284 276 262 241 238 214 213 214 218 175 186 173 158 151 157 166 181 184 181 177 167
332 327 324 323 322 318 315 313 312 310 303 303 302 298 293 292 294 294 282 270 274 278 282 284 280 242 239 227 217 222 206 166 163 170 168 169 175 178 174 173 150 109 75
335 331 327 324 321 321 317 315 313 314 309 308 306 307 307 306 302 301 292 273 271 274 275 276 275 246 242 236 226 214 185 177 174 181 187 186 183 172 147 127 102 93 69
329 328 326 328 329 328 320 314 317 316 310 306 307 305 304 301 300 301 298 296 282 269 277 279 269 258 243 238 225 205 194 191 193 196 192 179 158 156 166 157 154 156 140
338 332 335 331 328 321 317 316 312 309 304 308 305 300 301 297 295 292 289 288 286 280 276 271 268 256 252 241 215 207 201 196 195 190 183 174 173 170 171 169 154 156 174
328 334 334 326 330 326 321 319 325 325 324 321 318 314 302 308 303 291 285 284 282 282 275 266 263 256 248 235 225 216 204 200 200 192 189 180 178 176 171 171 164 171 170
327 343 338 337 328 329 333 333 328 331 336 335 336 335 333 333 326 321 324 290 283 282 268 264 260 249 248 238 226 220 217 204 195 197 193 186 182 183 175 177 171 171 170
346 354 344 333 329 329 328 328 329 333 336 337 340 340 340 341 339 343 341 325 288 278 270 264 255 248 247 235 227 223 222 204 200 198 194 191 188 182 180 180 178 173 170
353 350 344 332 326 326 326 334 335 335 333 333 336 343 340 349 348 351 355 355 343 330 307 276 254 245 241 238 230 223 219 211 205 201 199 195 191 186 188 182 176 170 158
342 343 344 334 332 335 334 341 341 337 336 336 340 342 342 349 356 353 352 348 345 340 336 334 306 255 248 233 227 223 219 216 210 207 203 197 193 190 183 171 166 155 152
340 349 347 347 342 338 337 345 336 332 330 335 339 338 354 352 349 352 349 349 347 344 341 336 333 342 296 227 220 217 219 215 209 205 192 177 167 164 153 146 139 139 130
338 343 352 349 340 339 339 335 329 331 332 335 335 337 350 353 351 350 349 349 348 347 346 345 347 348 349 349 334 261 204 191 175 166 160 158 154 147 141 137 134 133 130
341 350 350 342 337 332 332 330 329 334 335 335 336 340 346 348 349 350 347 347 347 347 350 352 354 356 357 354 353 355 359 2 71 146 149 144 144 145 140 136 132 131 141
338 346 338 332 336 332 327 326 325 332 335 337 339 341 344 343 345 344 347 343 343 345 348 351 355 356 355 1 0 358 358 359 11 46 130 137 132 130 125 120 133 139 138
323 330 326 327 327 324 323 326 330 333 334 334 335 336 337 337 340 339 344 342 341 342 343 347 353 351 357 357 357 359 0 12 22 26 39 89 106 112 118 124 131 133 137
325 327 321 322 324 323 322 322 324 327 328 328 329 329 330 330 331 334 337 339 337 337 339 340 345 351 352 352 353 354 352 19 22 25 42 57 76 82 97 119 133 136 141